Weather History for K12N - January, 2013

Change the Weather History Date:

Friday, January 25, 2013

  Actual Average (KFWN) Record (KFWN)
Temperature  
Mean Temperature 15 °F -  
Max Temperature 21 °F 37 °F 62 °F (1967)
Min Temperature 7 °F 13 °F -14 °F (1987)
Degree Days  
Heating Degree Days 50    
Moisture  
Dew Point 4 °F    
Average Humidity 65    
Maximum Humidity 88    
Minimum Humidity 46    
Precipitation  
Precipitation 3.92 in - - ()
Sea Level Pressure  
Sea Level Pressure 30.30 in    
Wind  
Wind Speed 2 mph (WNW)    
Max Wind Speed 6 mph    
Max Gust Speed 16 mph    
Averages and records for this station are not official NWS values.
T = Trace of Precipitation, MM = Missing Value Source: NWS Daily Summary

Daily Weather History Graph

Daily Weather History Graph

Search for Another Location

Airport or City:

Trip Planner

Search our weather history database for the weather conditions in past years. The results will help you decide how hot, cold, wet, or windy it might be!

Date:

Astronomy

Jan. 25, 2013 Rise Set
Actual Time 7:15 AM EST 5:07 PM EST
Civil Twilight 6:45 AM EST 5:37 PM EST
Nautical Twilight 6:12 AM EST 6:10 PM EST
Astronomical Twilight 5:40 AM EST 6:43 PM EST
Moon 4:02 PM EST (1/25) 5:53 AM EST (1/25)
Length of Visible Light 10h 51m
Length of Day
9h 52m
Waxing Gibbous, 98% of the Moon is Illuminated
Jan 25
Waxing Gibbous
Jan 26
Full
Feb 3
Last Quarter
Feb 10
New
Feb 17
First Quarter

Hourly Weather History & Observations

Time (EST) Temp. Windchill Dew Point Humidity Pressure Visibility Wind Dir Wind Speed Gust Speed Precip Events Conditions
12:54 AM 10.9 °F 2.9 °F -2.9 °F 54% 30.46 in - Variable 4.6 mph 16.1 mph N/A   Unknown
1:54 AM 10.0 °F 3.6 °F -2.0 °F 58% 30.45 in - NW 3.5 mph - 0.02 in   Unknown
2:54 AM 10.0 °F 3.6 °F -2.0 °F 58% 30.45 in - Variable 3.5 mph - N/A   Unknown
3:54 AM 10.0 °F - -0.9 °F 61% 30.45 in - Calm Calm - 0.57 in   Unknown
4:54 AM 9.0 °F 0.6 °F -0.0 °F 67% 30.44 in - NNW 4.6 mph - 0.14 in   Unknown
5:54 AM 10.0 °F - 1.0 °F 67% 30.45 in - Calm Calm - 0.64 in   Unknown
6:54 AM 10.9 °F - 1.0 °F 64% 30.45 in - Calm Calm - 0.42 in   Unknown
7:54 AM 10.9 °F - 1.9 °F 67% 30.44 in - Calm Calm - 0.42 in   Unknown
8:54 AM 12.9 °F - 1.9 °F 62% 30.44 in - Calm Calm - 0.14 in   Unknown
9:54 AM 14.0 °F 5.1 °F 3.0 °F 62% 30.43 in - NNW 5.8 mph - 0.08 in   Unknown
10:54 AM 16.0 °F 10.4 °F 3.0 °F 57% 30.40 in - North 3.5 mph - 0.16 in   Unknown
11:54 AM 18.0 °F - 3.0 °F 52% 30.35 in - Calm Calm - 0.02 in   Unknown
12:54 PM 19.0 °F 12.3 °F 3.0 °F 50% 30.30 in - Variable 4.6 mph - 0.14 in   Unknown
1:54 PM 19.9 °F 13.4 °F 3.0 °F 48% 30.26 in - SSW 4.6 mph - 0.01 in   Unknown
2:54 PM 21.0 °F - 3.0 °F 46% 30.23 in - Calm Calm - 0.07 in   Unknown
3:54 PM 21.0 °F - 3.0 °F 46% 30.21 in - Calm Calm - 0.05 in   Unknown
4:54 PM 19.0 °F 12.3 °F 7.0 °F 59% 30.19 in - SSW 4.6 mph - 0.18 in   Unknown
5:54 PM 18.0 °F - 12.9 °F 81% 30.16 in - Calm Calm - 0.07 in   Unknown
6:54 PM 17.1 °F 11.7 °F 12.9 °F 84% 30.16 in - SW 3.5 mph - 0.14 in   Unknown
7:54 PM 17.1 °F - 12.0 °F 81% 30.14 in - Calm Calm - 0.01 in   Unknown
8:54 PM 14.0 °F - 10.0 °F 84% 30.12 in - Calm Calm - 0.15 in   Unknown
9:54 PM 10.9 °F - 8.1 °F 88% 30.11 in - Calm Calm - 0.02 in   Unknown
10:54 PM 9.0 °F - 5.0 °F 84% 30.10 in - Calm Calm - 0.20 in   Unknown
11:54 PM 7.0 °F - 3.0 °F 84% 30.11 in - Calm Calm - 0.27 in   Unknown